PDT,Max TemperatureF,Mean TemperatureF,Min TemperatureF,Max Dew PointF,MeanDew PointF,Min DewpointF,Max Humidity, Mean Humidity, Min Humidity, Max Sea Level PressureIn, Mean Sea Level PressureIn, Min Sea Level PressureIn, Max VisibilityMiles, Mean VisibilityMiles, Min VisibilityMiles, Max Wind SpeedMPH, Mean Wind SpeedMPH, Max Gust SpeedMPH,PrecipitationIn, CloudCover, Events, WindDirDegrees
2014-3-1,62,56,49,50,46,44,93,74,55,29.82,29.65,29.50,10,10,9,18,6,24,0.03,7,Rain,125
2014-3-2,61,56,51,54,50,46,93,77,60,30.12,29.96,29.82,10,9,2,12,5,16,0.04,8,Rain,163
2014-3-3,54,53,52,52,50,48,96,90,83,30.11,30.06,30.01,10,5,2,16,9,21,1.65,8,Rain,156
2014-3-4,63,58,52,52,51,49,96,81,65,30.11,30.07,30.04,10,10,8,10,4,14,T,6,Rain,156
2014-3-5,60,57,54,54,53,52,93,84,75,30.09,30.01,29.95,10,7,2,17,8,24,0.42,8,Rain,152
2014-3-6,63,54,45,52,48,42,100,80,60,30.22,30.10,30.03,10,8,1,15,4,19,T,6,Rain,300
2014-3-7,70,55,39,44,41,37,100,66,31,30.23,30.17,30.10,10,10,7,13,3,17,0.00,0,,335
2014-3-8,72,56,39,47,43,37,92,65,38,30.22,30.16,30.10,10,10,10,10,1,12,0.00,3,,87
2014-3-9,58,55,52,53,51,48,89,78,66,30.20,30.13,30.08,10,9,4,5,0,6,0.13,8,Rain,319
2014-3-10,65,55,44,51,44,35,93,65,36,30.29,30.19,30.10,10,9,4,18,6,25,0.15,3,Rain,331
2014-3-11,76,56,36,40,31,15,92,51,10,30.28,30.15,30.03,10,10,2,13,3,19,0.00,0,,14
2014-3-12,78,58,37,36,28,15,70,40,9,30.17,30.10,30.02,10,10,10,13,2,19,0.00,0,,78
2014-3-13,78,57,36,36,32,26,85,50,15,30.11,30.05,29.96,10,10,10,16,3,21,0.00,0,,330
2014-3-14,76,59,41,44,40,36,82,55,27,30.26,30.15,30.05,10,10,10,13,3,17,0.00,0,,317
2014-3-15,81,61,41,45,39,28,89,55,20,30.33,30.28,30.24,10,10,10,14,3,18,0.00,0,,336
2014-3-16,79,59,38,41,35,23,86,51,15,30.34,30.27,30.19,10,10,10,18,3,26,0.00,0,,3
2014-3-17,66,56,46,47,41,37,93,65,37,30.21,30.12,30.02,10,10,4,14,5,18,T,2,Rain,344
2014-3-18,76,56,36,39,33,16,92,52,11,30.03,29.96,29.86,10,10,10,13,1,17,0.00,0,,300
2014-3-19,77,58,38,37,33,25,85,50,15,30.09,30.04,29.99,10,10,10,13,1,18,0.00,0,,258
2014-3-20,76,59,41,40,36,19,82,47,12,30.08,30.01,29.91,10,10,10,14,2,17,0.00,0,,320
2014-3-21,77,58,39,40,35,22,79,46,13,29.98,29.94,29.88,10,10,10,13,2,17,0.00,0,,267
2014-3-22,77,58,38,40,36,34,85,54,23,30.10,30.04,29.98,10,10,10,15,2,20,0.00,0,,303
2014-3-23,79,57,35,39,34,30,89,55,20,30.17,30.11,30.06,10,10,10,12,1,13,0.00,0,,321
2014-3-24,79,59,38,37,31,15,85,47,9,30.16,30.08,29.98,10,10,10,12,1,14,0.00,0,,330
2014-3-25,57,48,39,51,41,30,89,70,50,30.02,29.95,29.83,10,7,2,7,1,8,0.43,7,Rain,347
2014-3-26,57,52,47,49,46,43,93,77,61,29.92,29.81,29.75,10,8,2,14,4,17,0.50,7,Rain,146
2014-3-27,58,52,46,47,45,44,93,78,62,30.11,30.02,29.93,10,10,8,12,4,15,0.02,7,Rain,148
2014-3-28,58,55,51,54,51,47,93,90,86,30.13,30.08,30.03,10,8,2,15,8,21,0.03,8,Rain,152
2014-3-29,58,54,50,53,48,41,93,78,62,30.06,30.02,29.98,10,7,2,12,5,15,0.91,7,Rain,77
2014-3-30,58,50,42,44,41,36,100,76,51,30.11,30.08,30.04,10,8,0,15,1,19,0.02,6,Fog-Rain,281
2014-3-31,48,45,41,44,41,38,93,88,82,30.05,29.87,29.80,10,8,2,14,3,21,1.00,7,Rain,320